[[{"header":{"parameterUnit":"m.s-1","parameterCategory":1,"la1":30.2992,"la2":30.254,"lo1":-89.0895,"lo2":-89.0443,"dy":0.0025,"dx":0.0025,"nx":19,"ny":19,"refTime":"2026-03-28T09:00:00:Z","depth":0,"parameterNumber":2,"parameterNumberName":"U-component_of_WINDS"},"data":[0,0,0,-2.5579,-2.558,-2.5607,-2.5607,-2.5658,-2.5658,0,0,0,0,0,0,0,0,0,0,0,-2.5581,-2.5582,-2.5579,-2.558,-2.5607,-2.5607,-2.5657,-2.5658,0,0,0,0,0,0,0,0,0,0,0,-2.5581,-2.5581,-2.5582,-2.558,-2.5607,-2.5607,-2.5657,-2.5631,0,0,0,0,0,0,0,0,0,0,-2.5602,-2.5613,-2.5581,-2.5582,-2.5581,-2.5607,-2.5607,-2.563,-2.5633,-2.5652,0,-2.5672,0,-2.5666,-2.5663,-2.5663,0,0,0,-2.5573,-2.5611,-2.5609,-2.5582,-2.5581,-2.5607,-2.5593,-2.5631,-2.5635,-2.5656,-2.5672,-2.5674,-2.5667,-2.5663,-2.5663,-2.5797,-2.5798,0,0,-2.5572,-2.5591,-2.5607,-2.5612,-2.5609,-2.5592,-2.5594,-2.5633,-2.5652,-2.5672,-2.5674,-2.5667,-2.5663,-2.5664,-2.5796,-2.5797,0,0,0,-2.5572,-2.559,-2.5587,-2.561,-2.5614,-2.5593,-2.5595,-2.565,-2.5647,-2.5675,-2.5668,-2.5664,-2.5665,-2.5795,-2.5796,-2.5863,0,0,0,-2.5571,-2.559,-2.5587,-2.5599,-2.5614,-2.5632,-2.5611,-2.5645,-2.5649,-2.5668,-2.5664,-2.5665,-2.5794,-2.5796,-2.5859,-2.5892,0,0,0,-2.5576,-2.5591,-2.5598,-2.56,-2.5613,-2.5631,-2.5631,-2.5645,-2.5645,-2.5663,-2.5665,-2.5793,-2.5795,-2.5855,-2.5886,-2.5934,0,0,0,-2.5587,-2.5657,-2.5599,-2.5675,-2.5613,-2.5672,-2.563,-2.5673,-2.5697,-2.5664,-2.5794,-2.5796,-2.5854,-2.5882,-2.593,-2.5979,-2.6001,0,0,-2.5686,-2.567,-2.5713,-2.5662,-2.5737,-2.5666,-2.5751,-2.5754,-2.5737,-2.5778,-2.5781,-2.586,-2.5886,-2.5933,-2.6113,-2.613,0,0,0,-2.5751,-2.5782,-2.5797,-2.582,-2.5824,-2.583,-2.5817,-2.5818,-2.5852,-2.5762,-2.5889,-2.5903,-2.5931,-2.5953,-2.5968,-2.5991,-2.5807,-2.5807,-2.5806,-2.5921,-2.5896,-2.5965,-2.5944,-2.5966,-2.5952,-2.5968,-2.5967,-2.5936,-2.5966,-2.5979,-2.6091,-2.6118,-2.6129,-2.6153,-2.6001,-2.6001,-2.6001,-2.6001,-2.6066,-2.6107,-2.6062,-2.6114,-2.6087,-2.6129,-2.6118,-2.6094,-2.6131,-2.6079,-2.6102,-2.6049,-2.6149,-2.6168,-2.6006,-2.6005,-2.6005,-2.6004,-2.6004,-2.6177,-2.6192,-2.6191,-2.6221,-2.6247,-2.6222,-2.6259,-2.6232,-2.6207,-2.623,-2.6241,-2.624,-2.6237,-2.6236,-2.6237,-2.6237,-2.6237,-2.6238,-2.6238,-2.6293,-2.629,-2.6324,-2.6333,-2.6344,-2.6355,-2.634,-2.635,-2.6355,-2.6333,-2.6333,-2.6299,-2.6162,-2.6129,-2.6244,-2.6243,-2.6242,-2.6242,-2.6241,-2.6454,-2.6413,-2.6466,-2.6477,-2.6484,-2.6512,-2.6476,-2.6499,-2.6504,-2.6523,-2.6483,-2.6386,-2.6367,-2.6355,-2.6328,-2.6487,-2.6487,-2.6487,-2.6487,-2.6549,-2.6536,-2.6584,-2.6603,-2.6619,-2.6592,-2.6653,-2.6642,-2.6624,-2.6625,-2.6598,-2.6559,-2.6548,-2.6536,-2.652,-2.6494,-2.6692,-2.6692,-2.6693,-2.6647,-2.6634,-2.6692,-2.6673,-2.6676,-2.668,-2.6737,-2.6761,-2.6732,-2.67,-2.6626,-2.6617,-2.6554,-2.6534,-2.6504,-2.648,-2.6433,0,0]},{"header":{"parameterUnit":"m.s-1","parameterCategory":1,"la1":30.2992,"la2":30.254,"lo1":-89.0895,"lo2":-89.0443,"dy":0.0025,"dx":0.0025,"nx":19,"ny":19,"refTime":"2026-03-28T09:00:00:Z","depth":0,"parameterNumber":3,"parameterNumberName":"V-component_of_WINDS"},"data":[0,0,0,-8.0659,-8.0662,-8.0785,-8.0786,-8.0951,-8.0952,0,0,0,0,0,0,0,0,0,0,0,-8.063,-8.0632,-8.0659,-8.0662,-8.0785,-8.0786,-8.095,-8.0952,0,0,0,0,0,0,0,0,0,0,0,-8.063,-8.0631,-8.0633,-8.0663,-8.0785,-8.0786,-8.095,-8.0853,0,0,0,0,0,0,0,0,0,0,-8.0732,-8.0714,-8.0631,-8.0633,-8.0663,-8.0785,-8.0786,-8.0849,-8.0859,-8.0899,0,-8.094,0,-8.0949,-8.0964,-8.0965,0,0,0,-8.0655,-8.0705,-8.0732,-8.0634,-8.0665,-8.0785,-8.0728,-8.0855,-8.0867,-8.0913,-8.0942,-8.0948,-8.0952,-8.0965,-8.0966,-8.1228,-8.1229,0,0,-8.0648,-8.0656,-8.0724,-8.074,-8.0726,-8.0724,-8.0732,-8.0862,-8.0892,-8.0942,-8.0951,-8.0955,-8.0966,-8.0968,-8.1227,-8.1228,0,0,0,-8.0633,-8.0651,-8.0674,-8.0734,-8.0756,-8.0728,-8.0737,-8.0886,-8.0893,-8.0953,-8.0956,-8.0967,-8.097,-8.1225,-8.1227,-8.1314,0,0,0,-8.0629,-8.0643,-8.0672,-8.0678,-8.0754,-8.0823,-8.0758,-8.0884,-8.0898,-8.0956,-8.0967,-8.0971,-8.1223,-8.1226,-8.1308,-8.1353,0,0,0,-8.0619,-8.0641,-8.0663,-8.0678,-8.0732,-8.0821,-8.0835,-8.0887,-8.0901,-8.0965,-8.0972,-8.1222,-8.1226,-8.1303,-8.1344,-8.1426,0,0,0,-8.061,-8.0735,-8.0664,-8.0804,-8.0731,-8.0875,-8.0834,-8.094,-8.1005,-8.0968,-8.1223,-8.1227,-8.1301,-8.1339,-8.142,-8.1496,-8.1529,0,0,-8.0771,-8.0754,-8.0836,-8.0777,-8.0936,-8.0855,-8.1026,-8.1076,-8.1072,-8.1175,-8.1182,-8.131,-8.1344,-8.1424,-8.1708,-8.1734,0,0,0,-8.089,-8.0949,-8.099,-8.1055,-8.1099,-8.114,-8.1164,-8.1182,-8.127,-8.1129,-8.1361,-8.138,-8.1427,-8.1463,-8.1486,-8.1526,-8.1244,-8.1244,-8.1243,-8.1128,-8.1121,-8.1256,-8.1265,-8.1328,-8.1353,-8.1403,-8.1431,-8.1402,-8.1458,-8.1488,-8.1662,-8.1704,-8.1721,-8.1762,-8.1527,-8.1528,-8.1528,-8.1528,-8.1364,-8.1447,-8.141,-8.1528,-8.1519,-8.1616,-8.1645,-8.1622,-8.171,-8.1637,-8.1678,-8.16,-8.175,-8.1786,-8.1535,-8.1533,-8.1533,-8.1532,-8.1532,-8.1519,-8.1558,-8.1581,-8.1676,-8.1749,-8.1751,-8.184,-8.1826,-8.1814,-8.1855,-8.1886,-8.1885,-8.1882,-8.1871,-8.1872,-8.1872,-8.1873,-8.1873,-8.1874,-8.1671,-8.1695,-8.1773,-8.1833,-8.1874,-8.1926,-8.1953,-8.1991,-8.203,-8.2014,-8.2014,-8.198,-8.1766,-8.1713,-8.1883,-8.1881,-8.188,-8.1879,-8.1878,-8.1913,-8.1857,-8.1978,-8.2019,-8.2089,-8.2162,-8.2146,-8.2226,-8.2256,-8.2299,-8.2257,-8.2101,-8.2081,-8.2064,-8.202,-8.2259,-8.2259,-8.2259,-8.2259,-8.2045,-8.2035,-8.2156,-8.2224,-8.2288,-8.2287,-8.242,-8.2443,-8.2456,-8.2474,-8.2437,-8.2377,-8.236,-8.235,-8.2326,-8.2285,-8.2586,-8.2587,-8.2587,-8.2194,-8.219,-8.2308,-8.2325,-8.2379,-8.2425,-8.255,-8.2626,-8.2629,-8.26,-8.2487,-8.2473,-8.2377,-8.2346,-8.2313,-8.2276,-8.22,0,0]}]]